Boise Air Terminal/Gowen field
KBOI : now visible

Airfield :











YOU CAN JOIN US ON...

 
LOGIN :

Register | Disclaimer

   EN    FR    IT 

 









Legend :    VFR   Marginal VFR   IFR   Intensive IFR   Very Intensive IFR
Visi :
Ceiling :
>= 8 km
>= 3000ft
5 to 8 km
1000 to 3000 ft
1500m to 5 km
500 to 1000 ft
800 to 1500m
200 to 500 ft
< 800m
< 200 ft
Symbols :   Thunderstorms  Fog  Heavy snow  Heavy precipitations  Wind > 20 kt






- Airport Elevation : 2871 ft
- IATA code : BOI


KBOI - Boise Air Terminal/Gowen field

CURRENT METAR :
  • 072053Z 29006KT 10SM CLR 17/03 A3005 RMK AO2 SLP172 T01720028 56009

EXPIRED METARs :
  • 071953Z 30006KT 10SM CLR 16/04 A3006 RMK AO2 SLP175 T01610039
  • 071853Z 32004KT 10SM CLR 14/03 A3007 RMK AO2 SLP178 T01440033

TAF KBOI
Valid from the 07 at 18:00 until the 08 at 18:00 UTC


071720Z 0718/0818 33007KT P6SM SCT250
FM080400 14007KT P6SM SKC
FM081600 30007KT P6SM SCT250



MET'MAP, your aeronautical weather chart ! - Copyright ORBIFLY December 2007 - Disclaimer

ORBIFLY MET'MAP TEAM :

Programming & Development : Alexandra Zaïnal
Concept & original design : Baudouin d'Aumeries
Assistance for programming : Marc-Olivier Méhu
Technical & hardware support : Manuel Goepfert

Contact : metmap@orbifly.com




SOURCES & CREDITS :

   NOAA       Earth
Advisory